Location: 5810 Zion Rd, Cleves, OH 45002, USA
(39.1922°N, 84.7113°W)
Time: 16:09:24
(UTC-05:00)

SR - Visible Passes

Search period start: 12 December 2019 00:00
Search period end: 22 December 2019 00:00
Orbit: 573 x 882 km, 66.7° (Epoch: 12 December)

Date Brightness Start Highest point End Pass type
(mag) Time Alt. Az. Time Alt. Az. Time Alt. Az.
12 Dec ? 18:42:05 10° NNW 18:47:58 84° WSW 18:53:25 10° SSE visible
12 Dec ? 20:28:08 10° W 20:29:01 10° W 20:29:53 10° WSW visible
13 Dec ? 17:52:30 10° NNW 17:58:13 52° ENE 18:03:34 10° SE visible
13 Dec ? 19:35:32 10° NW 19:39:52 23° WSW 19:44:01 10° SSW visible
14 Dec ? 18:45:04 10° NW 18:50:33 45° WSW 18:55:41 10° S visible
15 Dec ? 17:55:10 10° NNW 18:01:01 88° WSW 18:06:28 10° SSE visible
15 Dec ? 19:40:34 10° W 19:42:08 11° W 19:43:40 10° WSW visible
16 Dec ? 18:48:30 10° NW 18:52:59 24° WSW 18:57:13 10° SSW visible
17 Dec ? 17:58:07 10° NW 18:03:38 48° WSW 18:08:47 10° S visible
18 Dec ? 06:45:42 10° SSE 06:49:40 21° ESE 06:53:48 10° ENE visible
18 Dec ? 18:53:13 10° W 18:55:14 12° W 18:57:12 10° WSW visible
19 Dec ? 18:01:29 10° NW 18:06:04 25° WSW 18:10:24 10° SSW visible
20 Dec ? 06:47:01 10° S 06:52:03 39° ESE 06:57:24 10° NE visible
21 Dec ? 05:58:56 10° SSE 06:02:46 19° ESE 06:06:45 10° ENE visible
21 Dec ? 18:05:58 10° WNW 18:08:20 13° W 18:10:39 10° SW visible
